Погода в Лунъяни

Китай     25°04′37″N   117°01′25″E
темп.,
°C
ветер,
м/с
пор.,
м/с
влажн.,
%
обл.,
%
осадки,
мм/ч
давл.,
гПа
погр.,
м
19 января, вт
вт1923:00+5всв115231 0.0 102422
02:00+4всв116217 0.0 102422
05:00+3св126480 0.0 102323
08:00+4св225645 0.0 102477
11:00+16всв12280 0.0 1023770
14:00+19ююв22250 0.0 10191281
17:00+15ююв23390 0.0 1019179
20:00+8вюв22630 0.0 102125
20 января, ср
ср2023:00+6в12860 0.0 102222
02:00+6всв11890 0.0 102223
05:00+5св22880 0.0 102130
08:00+7св22790 0.0 102378
11:00+19с114513 0.0 1021526
14:00+22юз134621 0.0 10171383
17:00+19ююз125859 0.0 101734
20:00+14вюв127173 0.0 101931
21 января, чт
чт2123:00+11всв11860 0.0 101922
02:00+10св12900 0.0 101922
05:00+10св22930 0.0 101828
08:00+12ссв228218 0.0 101982
11:00+22ссв224518 0.0 1018516
14:00+27ссз13349 0.0 10151730
17:00+23с114634 0.0 101429
20:00+16всв126736 0.0 101526
22 января, пт
пт2223:00+14в118228 0.0 101623
02:00+13всв118018 0.0 101534
05:00+14всв117567 0.0 101523
08:00+14ссв227743 0.0 101693
11:00+17ссв116670 0.0 1016193
14:00+24юв014474 0.0 1012775
17:00+21ююз115227 0.0 101167
20:00+16в017045 0.0 101324
23 января, сб
сб2323:00+13ссв018817 0.0 101423
02:00+12ссз019012 0.0 101423
05:00+11с01910 0.0 101422
08:00+12сз11833 0.0 101659
11:00+21зсз125158 0.0 1016945
14:00+22сз234455 0.0 10131685
17:00+20с135144 0.0 1013283
20:00+13ссв127822 0.0 101623